| time (UTC) | temp C | wind direction | speed KPH | gust KPH | rain 1hr cm | rain 24hr cm | rain mn cm | humidity % | barometer mb |
| 20260507061002 | 6 | 288 | 0.0 | 3.2 | 0.00 | 0.56 | 0.00 | 89 | 1013.4 |
| 20260507060502 | 6 | 275 | 0.0 | 3.2 | 0.00 | 0.56 | 0.00 | 89 | 1013.4 |
| 20260507055503 | 6 | 269 | 0.0 | 3.2 | 0.00 | 0.56 | 0.00 | 90 | 1013.4 |
| 20260507055003 | 6 | 265 | 0.0 | 3.2 | 0.00 | 0.56 | 0.00 | 90 | 1013.3 |
| 20260507054007 | 6 | 269 | 0.0 | 3.2 | 0.00 | 0.56 | 0.00 | 90 | 1013.2 |
| 20260507053504 | 6 | 279 | 0.0 | 3.2 | 0.00 | 0.56 | 0.00 | 90 | 1013.2 |
| 20260507052505 | 6 | 229 | 0.0 | 3.2 | 0.00 | 0.56 | 0.00 | 90 | 1013.3 |
| 20260507052006 | 6 | 11 | 0.0 | 3.2 | 0.00 | 0.56 | 0.00 | 91 | 1013.6 |
| 20260507051520 | 6 | 305 | 0.0 | 3.2 | 0.00 | 0.56 | 0.00 | 91 | 1013.6 |
| 20260507051006 | 6 | 333 | 0.0 | 3.2 | 0.00 | 0.56 | 0.00 | 91 | 1013.5 |
| 20260507050506 | 6 | 284 | 0.0 | 3.2 | 0.00 | 0.56 | 0.00 | 91 | 1013.5 |
| 20260507045505 | 6 | 288 | 0.0 | 3.2 | 0.00 | 0.56 | 0.00 | 91 | 1013.4 |
| 20260507045003 | 6 | 264 | 0.0 | 3.2 | 0.00 | 0.56 | 0.00 | 91 | 1013.3 |
| 20260507044003 | 6 | 299 | 0.0 | 3.2 | 0.00 | 0.56 | 0.00 | 91 | 1013.4 |
| 20260507043501 | 6 | 312 | 0.0 | 3.2 | 0.00 | 0.56 | 0.00 | 91 | 1013.3 |
| 20260507043013 | 6 | 254 | 0.0 | 3.2 | 0.00 | 0.56 | 0.00 | 91 | 1013.4 |
| 20260507042503 | 7 | 5 | 0.0 | 3.2 | 0.00 | 0.56 | 0.00 | 91 | 1013.3 |
| 20260507042007 | 7 | 352 | 1.6 | 3.2 | 0.00 | 0.56 | 0.00 | 91 | 1013.3 |
| 20260507041007 | 7 | 280 | 0.0 | 3.2 | 0.00 | 0.56 | 0.00 | 92 | 1013.0 |
| 20260507040506 | 7 | 236 | 0.0 | 3.2 | 0.00 | 0.56 | 0.00 | 92 | 1012.9 |
| 20260507035506 | 7 | 257 | 0.0 | 3.2 | 0.00 | 0.56 | 0.56 | 92 | 1012.7 |
| 20260507035012 | 7 | 311 | 0.0 | 3.2 | 0.00 | 0.56 | 0.56 | 92 | 1012.5 |
| 20260507034003 | 7 | 321 | 0.0 | 3.2 | 0.00 | 0.56 | 0.56 | 92 | 1012.4 |
| 20260507033504 | 7 | 338 | 0.0 | 3.2 | 0.00 | 0.56 | 0.56 | 92 | 1012.4 |
| 20260507032504 | 7 | 338 | 0.0 | 3.2 | 0.00 | 0.56 | 0.56 | 92 | 1012.5 |
| 20260507032005 | 7 | 42 | 0.0 | 3.2 | 0.00 | 0.56 | 0.56 | 92 | 1012.6 |
| 20260507031006 | 7 | 186 | 0.0 | 3.2 | 0.00 | 0.56 | 0.56 | 92 | 1012.7 |
| 20260507030507 | 7 | 184 | 0.0 | 3.2 | 0.00 | 0.56 | 0.56 | 92 | 1012.7 |
| 20260507025508 | 7 | 207 | 0.0 | 3.2 | 0.00 | 0.56 | 0.56 | 92 | 1012.5 |
| 20260507025005 | 7 | 210 | 0.0 | 3.2 | 0.00 | 0.56 | 0.56 | 92 | 1012.3 |
| 20260507024009 | 7 | 275 | 0.0 | 3.2 | 0.00 | 0.56 | 0.56 | 92 | 1012.4 |
| 20260507023506 | 7 | 275 | 0.0 | 3.2 | 0.00 | 0.56 | 0.56 | 92 | 1012.7 |
| 20260507023022 | 7 | 275 | 0.0 | 3.2 | 0.00 | 0.56 | 0.56 | 91 | 1012.6 |
| 20260507022503 | 7 | 275 | 0.0 | 3.2 | 0.00 | 0.56 | 0.56 | 91 | 1012.4 |
| 20260507022003 | 7 | 275 | 0.0 | 3.2 | 0.00 | 0.56 | 0.56 | 91 | 1012.3 |
| 20260507021511 | 7 | 275 | 0.0 | 3.2 | 0.00 | 0.56 | 0.56 | 91 | 1012.4 |
| 20260507021005 | 7 | 292 | 0.0 | 0.0 | 0.00 | 0.56 | 0.56 | 91 | 1012.6 |
| 20260507020506 | 7 | 292 | 0.0 | 1.6 | 0.00 | 0.56 | 0.56 | 91 | 1012.6 |
| 20260507015506 | 7 | 292 | 0.0 | 3.2 | 0.00 | 0.56 | 0.56 | 91 | 1012.6 |
| 20260507015006 | 7 | 292 | 0.0 | 0.0 | 0.00 | 0.56 | 0.56 | 91 | 1012.6 |
| 20260507014006 | 7 | 292 | 0.0 | 0.0 | 0.00 | 0.56 | 0.56 | 91 | 1012.8 |
| 20260507013508 | 7 | 292 | 0.0 | 0.0 | 0.00 | 0.56 | 0.56 | 91 | 1012.9 |
| 20260507012513 | 7 | 292 | 0.0 | 0.0 | 0.00 | 0.56 | 0.56 | 91 | 1013.0 |
| 20260507012011 | 7 | 292 | 0.0 | 0.0 | 0.00 | 0.56 | 0.56 | 91 | 1012.7 |
| 20260507011535 | 7 | 292 | 0.0 | 0.0 | 0.00 | 0.56 | 0.56 | 91 | 1012.6 |
| 20260507011003 | 7 | 292 | 0.0 | 0.0 | 0.00 | 0.56 | 0.56 | 91 | 1012.6 |
| 20260507010502 | 7 | 292 | 0.0 | 0.0 | 0.00 | 0.56 | 0.56 | 91 | 1012.7 |
| 20260507010012 | 7 | 292 | 0.0 | 0.0 | 0.00 | 0.56 | 0.56 | 91 | 1012.6 |
| 20260507005504 | 7 | 292 | 0.0 | 3.2 | 0.00 | 0.56 | 0.56 | 91 | 1012.7 |
| 20260507005006 | 7 | 292 | 0.0 | 3.2 | 0.00 | 0.56 | 0.56 | 91 | 1012.5 |
| 20260507004520 | 7 | 292 | 0.0 | 3.2 | 0.00 | 0.56 | 0.56 | 91 | 1012.4 |
| 20260507004006 | 7 | 292 | 0.0 | 0.0 | 0.00 | 0.56 | 0.56 | 91 | 1012.5 |
| 20260507003507 | 7 | 292 | 0.0 | 0.0 | 0.00 | 0.56 | 0.56 | 91 | 1012.3 |
| 20260507003022 | 7 | 292 | 0.0 | 1.6 | 0.00 | 0.56 | 0.56 | 91 | 1012.3 |
| 20260507002506 | 7 | 292 | 0.0 | 0.0 | 0.00 | 0.56 | 0.56 | 91 | 1012.2 |
| 20260507002010 | 7 | 292 | 0.0 | 1.6 | 0.00 | 0.56 | 0.56 | 91 | 1012.1 |
| 20260507001525 | 7 | 292 | 0.0 | 1.6 | 0.00 | 0.56 | 0.56 | 91 | 1012.2 |
| 20260507001010 | 7 | 292 | 0.0 | 0.0 | 0.00 | 0.56 | 0.56 | 91 | 1012.2 |
| 20260507000513 | 7 | 292 | 0.0 | 0.0 | 0.00 | 0.56 | 0.56 | 91 | 1012.1 |
| 20260507000029 | 7 | 292 | 0.0 | 0.0 | 0.00 | 0.56 | 0.56 | 91 | 1012.1 |
| 20260506235502 | 7 | 292 | 0.0 | 0.0 | 0.00 | 0.56 | 0.56 | 91 | 1012.0 |
| 20260506235006 | 7 | 292 | 0.0 | 0.0 | 0.00 | 0.56 | 0.56 | 91 | 1012.0 |
| 20260506234515 | 7 | 292 | 0.0 | 0.0 | 0.00 | 0.56 | 0.56 | 91 | 1012.0 |
| 20260506234005 | 7 | 292 | 0.0 | 0.0 | 0.00 | 0.56 | 0.56 | 91 | 1012.1 |
| 20260506233506 | 7 | 292 | 0.0 | 0.0 | 0.00 | 0.56 | 0.56 | 91 | 1012.0 |
| 20260506233023 | 7 | 292 | 0.0 | 0.0 | 0.00 | 0.58 | 0.56 | 91 | 1011.9 |
| 20260506232505 | 7 | 292 | 0.0 | 0.0 | 0.00 | 0.58 | 0.56 | 91 | 1011.8 |
| 20260506232010 | 7 | 292 | 0.0 | 0.0 | 0.00 | 0.58 | 0.56 | 91 | 1011.7 |
| 20260506231524 | 7 | 292 | 0.0 | 0.0 | 0.00 | 0.58 | 0.56 | 91 | 1011.7 |
| 20260506231010 | 7 | 292 | 0.0 | 0.0 | 0.00 | 0.61 | 0.56 | 92 | 1011.7 |
| 20260506230506 | 7 | 292 | 0.0 | 1.6 | 0.00 | 0.61 | 0.56 | 92 | 1011.5 |
| 20260506230027 | 7 | 292 | 0.0 | 3.2 | 0.00 | 0.69 | 0.56 | 92 | 1011.6 |
| 20260506225514 | 7 | 292 | 0.0 | 3.2 | 0.00 | 0.71 | 0.56 | 92 | 1011.6 |
| 20260506225010 | 7 | 292 | 0.0 | 0.0 | 0.00 | 0.94 | 0.56 | 92 | 1011.5 |
| 20260506224525 | 7 | 292 | 0.0 | 0.0 | 0.00 | 0.97 | 0.56 | 92 | 1011.4 |
| 20260506224010 | 7 | 292 | 0.0 | 0.0 | 0.00 | 0.97 | 0.56 | 92 | 1011.3 |
| 20260506223505 | 7 | 292 | 0.0 | 1.6 | 0.00 | 1.02 | 0.56 | 92 | 1011.4 |
| 20260506223013 | 7 | 292 | 0.0 | 1.6 | 0.00 | 1.02 | 0.56 | 92 | 1011.3 |
| 20260506222504 | 7 | 292 | 0.0 | 3.2 | 0.00 | 1.02 | 0.56 | 92 | 1011.3 |
| 20260506222005 | 7 | 292 | 0.0 | 3.2 | 0.03 | 1.02 | 0.56 | 92 | 1011.3 |
| 20260506221520 | 7 | 292 | 0.0 | 3.2 | 0.03 | 1.02 | 0.56 | 92 | 1011.5 |
| 20260506221009 | 7 | 268 | 0.0 | 3.2 | 0.03 | 1.02 | 0.56 | 92 | 1011.5 |
| 20260506220507 | 7 | 268 | 0.0 | 3.2 | 0.03 | 1.02 | 0.56 | 92 | 1011.6 |
| 20260506220023 | 7 | 303 | 0.0 | 3.2 | 0.03 | 1.02 | 0.56 | 92 | 1011.7 |
| 20260506215512 | 7 | 341 | 0.0 | 3.2 | 0.03 | 1.02 | 0.56 | 92 | 1011.6 |
| 20260506215008 | 7 | 349 | 0.0 | 3.2 | 0.03 | 1.02 | 0.56 | 92 | 1011.3 |
| 20260506214524 | 7 | 302 | 0.0 | 3.2 | 0.03 | 1.02 | 0.56 | 92 | 1011.3 |
| 20260506214011 | 7 | 333 | 0.0 | 3.2 | 0.03 | 1.02 | 0.56 | 92 | 1011.4 |
| 20260506213511 | 7 | 326 | 0.0 | 3.2 | 0.03 | 1.02 | 0.56 | 92 | 1011.4 |
| 20260506213027 | 7 | 328 | 0.0 | 3.2 | 0.03 | 1.02 | 0.56 | 92 | 1011.5 |
| 20260506212509 | 7 | 319 | 0.0 | 3.2 | 0.03 | 1.02 | 0.56 | 92 | 1011.3 |
| 20260506212005 | 7 | 265 | 0.0 | 3.2 | 0.00 | 0.99 | 0.53 | 92 | 1011.3 |
| 20260506211518 | 7 | 269 | 0.0 | 3.2 | 0.00 | 0.99 | 0.53 | 93 | 1011.3 |
| 20260506211005 | 7 | 112 | 0.0 | 3.2 | 0.00 | 0.99 | 0.53 | 93 | 1011.3 |
| 20260506210503 | 7 | 284 | 0.0 | 3.2 | 0.00 | 0.99 | 0.53 | 93 | 1011.3 |
| 20260506210006 | 7 | 278 | 0.0 | 3.2 | 0.00 | 0.99 | 0.53 | 93 | 1011.2 |
| 20260506205503 | 7 | 186 | 0.0 | 3.2 | 0.00 | 0.99 | 0.53 | 93 | 1011.2 |
| 20260506205003 | 7 | 247 | 0.0 | 3.2 | 0.00 | 0.99 | 0.53 | 93 | 1011.1 |
| 20260506204507 | 7 | 269 | 0.0 | 3.2 | 0.00 | 0.99 | 0.53 | 93 | 1010.9 |
| 20260506204003 | 7 | 268 | 0.0 | 3.2 | 0.00 | 0.99 | 0.53 | 93 | 1010.8 |
| 20260506203504 | 7 | 317 | 0.0 | 3.2 | 0.00 | 0.99 | 0.53 | 93 | 1010.8 |
| 20260506203010 | 7 | 34 | 0.0 | 3.2 | 0.00 | 0.99 | 0.53 | 93 | 1010.6 |
| 20260506202506 | 7 | 243 | 0.0 | 3.2 | 0.00 | 0.99 | 0.53 | 93 | 1010.6 |
| 20260506202013 | 7 | 267 | 0.0 | 3.2 | 0.00 | 0.99 | 0.53 | 93 | 1010.6 |
| 20260506201503 | 7 | 320 | 0.0 | 3.2 | 0.00 | 0.99 | 0.53 | 93 | 1010.6 |
| 20260506201002 | 7 | 257 | 0.0 | 3.2 | 0.00 | 0.99 | 0.53 | 93 | 1010.6 |
| 20260506200502 | 7 | 292 | 0.0 | 3.2 | 0.00 | 0.99 | 0.53 | 93 | 1010.4 |
| 20260506200004 | 7 | 285 | 0.0 | 3.2 | 0.00 | 0.99 | 0.53 | 93 | 1010.6 |
| 20260506195503 | 7 | 289 | 0.0 | 3.2 | 0.00 | 0.99 | 0.53 | 93 | 1010.5 |
| 20260506195003 | 7 | 281 | 0.0 | 3.2 | 0.00 | 0.99 | 0.53 | 93 | 1010.4 |
| 20260506194508 | 7 | 215 | 0.0 | 3.2 | 0.03 | 0.99 | 0.53 | 93 | 1010.2 |
| 20260506194003 | 7 | 319 | 0.0 | 3.2 | 0.03 | 0.99 | 0.53 | 93 | 1010.1 |
| 20260506193504 | 7 | 261 | 0.0 | 3.2 | 0.03 | 0.99 | 0.53 | 93 | 1010.2 |
| 20260506193008 | 7 | 292 | 0.0 | 3.2 | 0.03 | 0.99 | 0.53 | 93 | 1010.3 |
| 20260506192504 | 7 | 320 | 0.0 | 3.2 | 0.03 | 0.99 | 0.53 | 93 | 1010.2 |
| 20260506192007 | 7 | 284 | 0.0 | 3.2 | 0.03 | 0.99 | 0.53 | 93 | 1010.1 |
| 20260506191514 | 7 | 293 | 0.0 | 3.2 | 0.03 | 0.99 | 0.53 | 93 | 1010.0 |
| 20260506191006 | 7 | 5 | 0.0 | 3.2 | 0.03 | 0.99 | 0.53 | 93 | 1010.0 |
| 20260506190507 | 7 | 352 | 0.0 | 3.2 | 0.03 | 0.99 | 0.53 | 93 | 1010.1 |
| 20260506190004 | 7 | 234 | 0.0 | 3.2 | 0.03 | 0.99 | 0.53 | 93 | 1010.1 |
| 20260506185502 | 7 | 303 | 0.0 | 3.2 | 0.03 | 0.99 | 0.53 | 93 | 1010.0 |
| 20260506185002 | 7 | 267 | 0.0 | 3.2 | 0.03 | 0.99 | 0.53 | 93 | 1010.0 |
| 20260506184504 | 7 | 9 | 0.0 | 3.2 | 0.00 | 0.97 | 0.51 | 93 | 1010.0 |
| 20260506184003 | 7 | 286 | 0.0 | 3.2 | 0.00 | 0.97 | 0.51 | 93 | 1010.0 |
| 20260506183503 | 7 | 227 | 0.0 | 3.2 | 0.03 | 0.97 | 0.51 | 93 | 1009.9 |
| 20260506183007 | 7 | 267 | 0.0 | 3.2 | 0.03 | 0.99 | 0.51 | 93 | 1009.8 |
| 20260506182503 | 7 | 271 | 0.0 | 3.2 | 0.03 | 1.02 | 0.51 | 93 | 1009.7 |
| 20260506182005 | 7 | 14 | 0.0 | 3.2 | 0.03 | 1.02 | 0.51 | 93 | 1009.7 |
| 20260506181513 | 7 | 331 | 0.0 | 3.2 | 0.03 | 1.02 | 0.51 | 93 | 1009.6 |
| 20260506181007 | 7 | 281 | 1.6 | 3.2 | 0.05 | 1.02 | 0.51 | 93 | 1009.5 |
| 20260506180510 | 7 | 304 | 0.0 | 3.2 | 0.05 | 1.02 | 0.51 | 93 | 1009.5 |
| 20260506180025 | 7 | 274 | 0.0 | 3.2 | 0.05 | 1.02 | 0.51 | 93 | 1009.4 |
| 20260506175507 | 7 | 237 | 0.0 | 3.2 | 0.05 | 1.02 | 0.51 | 93 | 1009.4 |
| 20260506175006 | 7 | 245 | 0.0 | 3.2 | 0.05 | 1.02 | 0.51 | 93 | 1009.2 |
| 20260506174505 | 7 | 325 | 0.0 | 3.2 | 0.05 | 1.02 | 0.51 | 93 | 1009.1 |
| 20260506174002 | 7 | 89 | 0.0 | 3.2 | 0.05 | 1.02 | 0.51 | 92 | 1009.0 |
| 20260506173503 | 7 | 240 | 0.0 | 3.2 | 0.03 | 0.99 | 0.48 | 92 | 1008.9 |
| 20260506173005 | 7 | 252 | 0.0 | 3.2 | 0.03 | 0.99 | 0.48 | 92 | 1008.9 |
| 20260506172503 | 7 | 48 | 0.0 | 3.2 | 0.03 | 0.99 | 0.48 | 92 | 1008.9 |
| 20260506172003 | 7 | 268 | 0.0 | 3.2 | 0.05 | 0.99 | 0.48 | 92 | 1008.9 |
| 20260506171508 | 7 | 290 | 0.0 | 3.2 | 0.05 | 0.99 | 0.48 | 92 | 1008.9 |
| 20260506171007 | 7 | 293 | 0.0 | 3.2 | 0.03 | 0.97 | 0.46 | 92 | 1008.9 |
| 20260506170506 | 7 | 292 | 0.0 | 3.2 | 0.03 | 0.97 | 0.46 | 92 | 1008.9 |
| 20260506170012 | 7 | 248 | 0.0 | 3.2 | 0.03 | 0.97 | 0.46 | 92 | 1008.9 |
| 20260506165506 | 7 | 286 | 0.0 | 3.2 | 0.03 | 0.97 | 0.46 | 92 | 1008.9 |
| 20260506165006 | 7 | 292 | 0.0 | 3.2 | 0.03 | 0.97 | 0.46 | 92 | 1008.9 |
| 20260506164521 | 7 | 236 | 0.0 | 3.2 | 0.03 | 0.97 | 0.46 | 92 | 1008.8 |
| 20260506164007 | 7 | 304 | 0.0 | 3.2 | 0.03 | 0.97 | 0.46 | 92 | 1008.8 |
| 20260506163508 | 7 | 305 | 0.0 | 3.2 | 0.03 | 0.97 | 0.46 | 92 | 1008.8 |
| 20260506163025 | 6 | 10 | 0.0 | 3.2 | 0.05 | 0.97 | 0.46 | 92 | 1008.9 |
| 20260506162503 | 6 | 9 | 0.0 | 3.2 | 0.08 | 0.97 | 0.46 | 92 | 1008.9 |
| 20260506162007 | 7 | 272 | 1.6 | 3.2 | 0.05 | 0.94 | 0.43 | 92 | 1008.9 |
| 20260506161507 | 7 | 292 | 0.0 | 3.2 | 0.08 | 0.94 | 0.43 | 92 | 1008.8 |
| 20260506161004 | 7 | 290 | 0.0 | 3.2 | 0.08 | 0.94 | 0.43 | 92 | 1008.8 |
| 20260506160505 | 7 | 298 | 0.0 | 3.2 | 0.08 | 0.94 | 0.43 | 92 | 1008.7 |
| 20260506160015 | 7 | 277 | 0.0 | 3.2 | 0.10 | 0.94 | 0.43 | 92 | 1008.8 |
| 20260506155506 | 7 | 329 | 0.0 | 3.2 | 0.10 | 0.94 | 0.43 | 92 | 1008.7 |
| 20260506155003 | 7 | 350 | 0.0 | 3.2 | 0.10 | 0.94 | 0.43 | 92 | 1008.7 |
| 20260506154517 | 7 | 348 | 0.0 | 3.2 | 0.13 | 0.94 | 0.43 | 92 | 1008.8 |
| 20260506154007 | 7 | 24 | 0.0 | 3.2 | 0.13 | 0.94 | 0.43 | 92 | 1008.8 |
| 20260506153506 | 7 | 71 | 0.0 | 3.2 | 0.15 | 0.94 | 0.43 | 92 | 1008.8 |
| 20260506153020 | 7 | 271 | 0.0 | 3.2 | 0.13 | 0.91 | 0.41 | 92 | 1008.9 |
| 20260506152506 | 7 | 45 | 0.0 | 3.2 | 0.10 | 0.89 | 0.38 | 92 | 1008.9 |
| 20260506152009 | 7 | 313 | 0.0 | 3.2 | 0.10 | 0.89 | 0.38 | 92 | 1008.9 |
| 20260506151525 | 7 | 325 | 0.0 | 3.2 | 0.08 | 0.86 | 0.36 | 92 | 1008.8 |
| 20260506151004 | 7 | 275 | 0.0 | 3.2 | 0.10 | 0.86 | 0.36 | 91 | 1008.9 |
| 20260506150503 | 7 | 279 | 0.0 | 3.2 | 0.10 | 0.86 | 0.36 | 91 | 1008.7 |
| 20260506150009 | 7 | 290 | 0.0 | 3.2 | 0.08 | 0.84 | 0.33 | 91 | 1008.6 |
| 20260506145504 | 7 | 284 | 0.0 | 3.2 | 0.08 | 0.84 | 0.33 | 91 | 1008.6 |
| 20260506145004 | 7 | 280 | 0.0 | 3.2 | 0.08 | 0.84 | 0.33 | 91 | 1008.6 |
| 20260506144511 | 7 | 273 | 0.0 | 3.2 | 0.08 | 0.81 | 0.30 | 91 | 1008.6 |
| 20260506144005 | 7 | 89 | 0.0 | 3.2 | 0.08 | 0.81 | 0.30 | 91 | 1008.6 |
| 20260506143506 | 7 | 136 | 0.0 | 3.2 | 0.05 | 0.79 | 0.28 | 91 | 1008.5 |
| 20260506143018 | 7 | 343 | 0.0 | 3.2 | 0.05 | 0.79 | 0.28 | 91 | 1008.6 |
| 20260506142505 | 7 | 330 | 0.0 | 3.2 | 0.08 | 0.79 | 0.28 | 91 | 1008.5 |
| 20260506142010 | 7 | 284 | 0.0 | 3.2 | 0.08 | 0.79 | 0.28 | 91 | 1008.4 |
| 20260506141519 | 7 | 5 | 0.0 | 3.2 | 0.10 | 0.79 | 0.28 | 91 | 1008.3 |
| 20260506141008 | 7 | 5 | 0.0 | 3.2 | 0.08 | 0.76 | 0.25 | 91 | 1008.4 |
| 20260506140510 | 7 | 5 | 0.0 | 3.2 | 0.10 | 0.76 | 0.25 | 91 | 1008.5 |
| 20260506140022 | 7 | 13 | 0.0 | 3.2 | 0.10 | 0.76 | 0.25 | 91 | 1008.5 |
| 20260506135503 | 7 | 341 | 0.0 | 3.2 | 0.13 | 0.76 | 0.25 | 91 | 1008.5 |
| 20260506135006 | 7 | 238 | 0.0 | 3.2 | 0.15 | 0.76 | 0.25 | 91 | 1008.5 |
| 20260506134519 | 7 | 295 | 0.0 | 3.2 | 0.15 | 0.74 | 0.23 | 91 | 1008.6 |
| 20260506134004 | 7 | 254 | 0.0 | 3.2 | 0.18 | 0.74 | 0.23 | 91 | 1008.5 |
| 20260506133504 | 7 | 252 | 0.0 | 3.2 | 0.20 | 0.74 | 0.23 | 91 | 1008.6 |
| 20260506133012 | 7 | 298 | 0.0 | 3.2 | 0.23 | 0.74 | 0.23 | 91 | 1008.6 |
| 20260506132506 | 7 | 284 | 0.0 | 3.2 | 0.20 | 0.71 | 0.20 | 91 | 1008.6 |
| 20260506132007 | 7 | 254 | 0.0 | 3.2 | 0.20 | 0.71 | 0.20 | 91 | 1008.7 |
| 20260506131521 | 7 | 334 | 0.0 | 3.2 | 0.18 | 0.69 | 0.18 | 91 | 1008.7 |
| 20260506131007 | 7 | 267 | 0.0 | 3.2 | 0.18 | 0.69 | 0.18 | 91 | 1008.7 |
| 20260506130509 | 7 | 254 | 0.0 | 3.2 | 0.15 | 0.66 | 0.15 | 91 | 1008.7 |
| 20260506130022 | 7 | 281 | 0.0 | 3.2 | 0.15 | 0.66 | 0.15 | 91 | 1008.6 |
| 20260506125509 | 7 | 280 | 0.0 | 3.2 | 0.13 | 0.64 | 0.13 | 91 | 1008.6 |
| 20260506125008 | 7 | 280 | 0.0 | 3.2 | 0.10 | 0.61 | 0.10 | 91 | 1008.6 |
| 20260506124525 | 7 | 276 | 0.0 | 3.2 | 0.08 | 0.58 | 0.08 | 91 | 1008.6 |
| 20260506124010 | 7 | 338 | 0.0 | 3.2 | 0.05 | 0.56 | 0.05 | 91 | 1008.6 |
| 20260506123504 | 7 | 331 | 0.0 | 3.2 | 0.03 | 0.53 | 0.03 | 91 | 1008.6 |
| 20260506123011 | 7 | 328 | 0.0 | 3.2 | 0.00 | 0.51 | 0.00 | 91 | 1008.5 |
| 20260506122508 | 7 | 329 | 0.0 | 0.0 | 0.00 | 0.51 | 0.00 | 91 | 1008.3 |
| 20260506122012 | -17 | 0.0 | 0.0 | 0.00 | 0.51 | 0.00 | 1008.2 | ||
| 20260506121531 | -17 | 0.0 | 0.0 | 0.00 | 0.51 | 0.00 | 1008.2 | ||
| 20260506121010 | -17 | 0.0 | 0.0 | 0.00 | 0.51 | 0.00 | 1008.2 | ||
| 20260506120503 | -17 | 0.0 | 0.0 | 0.00 | 0.51 | 0.00 | 1008.1 | ||
| 20260506120009 | -17 | 0.0 | 0.0 | 0.00 | 0.51 | 0.00 | 1008.1 | ||
| 20260506115503 | -17 | 0.0 | 0.0 | 0.00 | 0.51 | 0.00 | 1008.1 | ||
| 20260506115003 | -17 | 0.0 | 0.0 | 0.00 | 0.51 | 0.00 | 1008.2 | ||
| 20260506114504 | -17 | 0.0 | 0.0 | 0.00 | 0.51 | 0.00 | 1008.3 | ||
| 20260506114002 | -17 | 0.0 | 0.0 | 0.00 | 0.51 | 0.00 | 1008.2 | ||
| 20260506113502 | -17 | 0.0 | 0.0 | 0.00 | 0.51 | 0.00 | 1008.1 | ||
| 20260506113005 | -17 | 0.0 | 0.0 | 0.00 | 0.51 | 0.00 | 1008.2 | ||
| 20260506112503 | -17 | 0.0 | 0.0 | 0.00 | 0.51 | 0.00 | 1008.2 | ||
| 20260506112004 | -17 | 0.0 | 0.0 | 0.00 | 0.51 | 0.00 | 1008.1 | ||
| 20260506111002 | -17 | 0.0 | 0.0 | 0.00 | 0.51 | 0.00 | 1008.2 | ||
| 20260506110502 | -17 | 0.0 | 0.0 | 0.00 | 0.51 | 0.00 | 1008.1 | ||
| 20260506110009 | -17 | 0.0 | 0.0 | 0.00 | 0.51 | 0.00 | 1008.2 | ||
| 20260506105503 | -17 | 0.0 | 0.0 | 0.00 | 0.51 | 0.00 | 1008.0 | ||
| 20260506105003 | -17 | 0.0 | 0.0 | 0.00 | 0.51 | 0.00 | 1008.1 | ||
| 20260506104503 | -17 | 0.0 | 0.0 | 0.00 | 0.51 | 0.00 | 1008.1 | ||
| 20260506104002 | -17 | 0.0 | 0.0 | 0.00 | 0.51 | 0.00 | 1008.1 | ||
| 20260506103502 | -17 | 0.0 | 0.0 | 0.00 | 0.51 | 0.00 | 1007.9 | ||
| 20260506103017 | -17 | 0.0 | 0.0 | 0.00 | 0.51 | 0.00 | 1007.8 | ||
| 20260506102503 | -17 | 0.0 | 0.0 | 0.00 | 0.51 | 0.00 | 1007.8 | ||
| 20260506102003 | -17 | 0.0 | 0.0 | 0.00 | 0.51 | 0.00 | 1008.5 | ||
| 20260506101504 | -17 | 0.0 | 0.0 | 0.00 | 0.51 | 0.00 | 1008.1 | ||
| 20260506101002 | -17 | 0.0 | 0.0 | 0.00 | 0.51 | 0.00 | 1008.2 | ||
| 20260506100503 | -17 | 0.0 | 0.0 | 0.00 | 0.51 | 0.00 | 1008.2 | ||
| 20260506100004 | -17 | 0.0 | 0.0 | 0.00 | 0.51 | 0.00 | 1008.2 | ||
| 20260506095502 | -17 | 0.0 | 0.0 | 0.00 | 0.51 | 0.00 | 1008.3 | ||
| 20260506095002 | -17 | 0.0 | 0.0 | 0.00 | 0.51 | 0.00 | 1008.2 | ||
| 20260506094504 | -17 | 0.0 | 0.0 | 0.00 | 0.51 | 0.00 | 1008.3 | ||
| 20260506094004 | -17 | 0.0 | 0.0 | 0.00 | 0.51 | 0.00 | 1007.9 | ||
| 20260506093503 | -17 | 0.0 | 0.0 | 0.00 | 0.51 | 0.00 | 1008.2 | ||
| 20260506093005 | -17 | 0.0 | 0.0 | 0.00 | 0.51 | 0.00 | 1008.4 | ||
| 20260506092503 | -17 | 0.0 | 0.0 | 0.00 | 0.51 | 0.00 | 1008.5 | ||
| 20260506092003 | -17 | 0.0 | 0.0 | 0.00 | 0.51 | 0.00 | 1008.7 | ||
| 20260506091506 | -17 | 0.0 | 0.0 | 0.00 | 0.51 | 0.00 | 1008.9 | ||
| 20260506091003 | -17 | 0.0 | 0.0 | 0.00 | 0.51 | 0.00 | 1009.0 | ||
| 20260506090502 | -17 | 0.0 | 0.0 | 0.00 | 0.51 | 0.00 | 1009.0 | ||
| 20260506090007 | -17 | 0.0 | 0.0 | 0.00 | 0.51 | 0.00 | 1009.1 | ||
| 20260506085503 | -17 | 0.0 | 0.0 | 0.00 | 0.51 | 0.00 | 1009.0 | ||
| 20260506085003 | -17 | 0.0 | 0.0 | 0.00 | 0.51 | 0.00 | 1009.0 | ||
| 20260506084506 | -17 | 0.0 | 0.0 | 0.00 | 0.51 | 0.00 | 1009.1 | ||
| 20260506084003 | -17 | 0.0 | 0.0 | 0.00 | 0.51 | 0.00 | 1009.1 | ||
| 20260506083504 | -17 | 0.0 | 0.0 | 0.00 | 0.51 | 0.00 | 1009.0 | ||
| 20260506083006 | -17 | 0.0 | 0.0 | 0.00 | 0.51 | 0.00 | 1008.9 | ||
| 20260506082501 | -17 | 0.0 | 0.0 | 0.00 | 0.51 | 0.00 | 1008.8 | ||
| 20260506082002 | -17 | 0.0 | 0.0 | 0.00 | 0.51 | 0.00 | 1008.6 | ||
| 20260506081506 | -17 | 0.0 | 0.0 | 0.00 | 0.51 | 0.00 | 1008.5 | ||
| 20260506081003 | -17 | 0.0 | 0.0 | 0.00 | 0.51 | 0.00 | 1008.7 | ||
| 20260506080504 | -17 | 0.0 | 0.0 | 0.00 | 0.51 | 0.00 | 1008.6 | ||
| 20260506073506 | -17 | 0.0 | 0.0 | 0.00 | 0.51 | 0.00 | 1008.5 | ||
| 20260506073012 | -17 | 0.0 | 0.0 | 0.00 | 0.51 | 0.00 | 1008.5 | ||
| 20260506072502 | -17 | 0.0 | 0.0 | 0.00 | 0.51 | 0.00 | 1008.8 | ||
| 20260506072003 | -17 | 0.0 | 0.0 | 0.00 | 0.51 | 0.00 | 1008.7 | ||
| 20260506071513 | -17 | 0.0 | 0.0 | 0.00 | 0.51 | 0.00 | 1008.7 | ||
| 20260506071002 | -17 | 0.0 | 0.0 | 0.00 | 0.51 | 0.00 | 1009.0 | ||
| 20260506070502 | -17 | 0.0 | 0.0 | 0.00 | 0.51 | 0.00 | 1008.9 | ||
| 20260506062505 | -17 | 0.0 | 0.0 | 0.00 | 0.51 | 0.00 | 1009.7 | ||
| 20260506062004 | -17 | 0.0 | 0.0 | 0.00 | 0.51 | 0.00 | 1009.8 | ||
| 20260506061512 | -17 | 302 | 0.0 | 0.0 | 0.00 | 0.51 | 0.00 | 1010.0 |